This is the latest recevied weather packets stored in our database for station/object EA3GKP-10. If no packets are shown the sender has not sent any weather packets the latest 10 day(s).
| Time | Temp. | Humidity | Pressure | Rain* | Wind** | Luminosity | Snow |
|---|---|---|---|---|---|---|---|
| 1777821781 | 20.56° C | - | - | 0 mm | 1.79 m/s, 23° | - | - |
| 1777821478 | 22.22° C | - | - | 0 mm | 0 m/s | - | - |
| 1777820868 | 22.22° C | - | - | 0 mm | 0 m/s | - | - |
| 1777819657 | 21.11° C | - | - | 0 mm | 1.79 m/s, 125° | - | - |
| 1777819354 | 21.67° C | - | - | 0 mm | 0.89 m/s, 163° | - | - |
| 1777819051 | 21.11° C | - | - | 0 mm | 0 m/s | - | - |
| 1777818747 | 21.11° C | - | - | 0 mm | 1.79 m/s, 127° | - | - |
| 1777818441 | 21.11° C | - | - | 0 mm | 0.89 m/s, 359° | - | - |
| 1777818138 | 21.67° C | - | - | 0 mm | 2.24 m/s, 359° | - | - |
| 1777817832 | 20.56° C | - | - | 0 mm | 1.34 m/s, 101° | - | - |
| 1777817529 | 21.11° C | - | - | 0 mm | 2.68 m/s, 68° | - | - |
| 1777817226 | 21.11° C | - | - | 0 mm | 1.34 m/s, 77° | - | - |
| 1777816614 | 21.11° C | - | - | 0 mm | 3.13 m/s, 139° | - | - |
| 1777816312 | 20.56° C | - | - | 0 mm | 2.68 m/s, 134° | - | - |
| 1777816006 | 20.56° C | - | - | 0 mm | 0.45 m/s, 359° | - | - |
| 1777815703 | 20.56° C | - | - | 0 mm | 0 m/s | - | - |
| 1777815400 | 21.11° C | - | - | 0 mm | 0.45 m/s, 359° | - | - |
| 1777815097 | 21.11° C | - | - | 0 mm | 1.79 m/s, 359° | - | - |
| 1777814794 | 21.11° C | - | - | 0 mm | 0 m/s | - | - |
| 1777814491 | 21.11° C | - | - | 0 mm | 1.34 m/s, 359° | - | - |
| 1777814185 | 20.56° C | - | - | 0 mm | 0.45 m/s, 359° | - | - |
| 1777813883 | 21.11° C | - | - | 0 mm | 2.24 m/s, 359° | - | - |
| 1777813579 | 20.56° C | - | - | 0 mm | 1.79 m/s, 359° | - | - |
| 1777813277 | 20.56° C | - | - | 0 mm | 3.13 m/s, 359° | - | - |
| 1777812974 | 20.56° C | - | - | 0 mm | 2.68 m/s, 117° | - | - |
* Rain latest hour (hover to see other rain measurements)
** Current wind speed in m/s (hover to see current wind gust speed)